Weather History for Du Bois, PA

Change the Weather History Date:

Friday, February 22, 2013

  Actual Average Record
Temperature  
Mean Temperature 21 °F 28 °F  
Max Temperature 27 °F 36 °F 60 °F (1983)
Min Temperature 14 °F 20 °F -10 °F (1963)
Degree Days  
Heating Degree Days 44 37  
Month to date heating degree days 938 862  
Since 1 July heating degree days 4519 4806  
Cooling Degree Days 0 0  
Month to date cooling degree days 0 0  
Year to date cooling degree days 0 0  
Moisture  
Dew Point 20 °F    
Average Humidity 84    
Maximum Humidity 100    
Minimum Humidity 68    
Precipitation  
Precipitation T in 0.09 in 0.81 in (1974)
Month to date precipitation 0.52 1.79  
Sea Level Pressure  
Sea Level Pressure 30.13 in    
Wind  
Wind Speed 13 mph (ESE)    
Max Wind Speed 22 mph    
Max Gust Speed 30 mph    
Visibility 6 miles    
Events Rain    
T = Trace of Precipitation, MM = Missing Value Source: NWS Daily Summary

Daily Weather History Graph

Daily Weather History Graph

Search for Another Location

Airport:

Trip Planner

Search our weather history database for the weather conditions in past years. The results will help you decide how hot, cold, wet, or windy it might be!

Date:

Astronomy

Feb. 22, 2013 Rise Set
Actual Time 7:00 AM EST 5:58 PM EST
Civil Twilight 6:32 AM EST 6:26 PM EST
Nautical Twilight 6:00 AM EST 6:58 PM EST
Astronomical Twilight 5:28 AM EST 7:30 PM EST
Moon 3:07 PM EST (2/22) 4:45 AM EST (2/22)
Length of Visible Light 11h 54m
Length of Day
10h 58m
Waxing Gibbous, 90% of the Moon is Illuminated
Feb 22
Waxing Gibbous
Feb 25
Full
Mar 4
Last Quarter
Mar 11
New
Mar 19
First Quarter

Hourly Weather History & Observations

Time (EST) Temp. Windchill Dew Point Humidity Pressure Visibility Wind Dir Wind Speed Gust Speed Precip Events Conditions
12:56 AM 14.0 °F 6.5 °F 10.0 °F 84% 30.33 in 10.0 mi East 4.6 mph - N/A   Clear
1:56 AM 15.1 °F 3.3 °F 10.9 °F 84% 30.32 in 10.0 mi ENE 9.2 mph - N/A   Clear
2:56 AM 17.1 °F 5.0 °F 12.0 °F 81% 30.30 in 10.0 mi East 10.4 mph - N/A   Clear
3:56 AM 17.1 °F 4.3 °F 12.0 °F 81% 30.29 in 10.0 mi East 11.5 mph - N/A   Clear
4:56 AM 17.1 °F 8.7 °F 12.9 °F 84% 30.29 in 10.0 mi East 5.8 mph 17.3 mph N/A   Clear
5:56 AM 18.0 °F 5.4 °F 12.9 °F 81% 30.29 in 10.0 mi East 11.5 mph - N/A   Clear
6:56 AM 18.0 °F 3.6 °F 12.9 °F 81% 30.26 in 10.0 mi East 15.0 mph - N/A   Clear
7:56 AM 19.9 °F 6.7 °F 14.0 °F 78% 30.24 in 10.0 mi ESE 13.8 mph 21.9 mph N/A   Overcast
8:56 AM 23.0 °F 9.2 °F 15.1 °F 72% 30.20 in 10.0 mi ESE 17.3 mph 28.8 mph N/A   Overcast
9:56 AM 24.1 °F 10.6 °F 15.1 °F 69% 30.18 in 10.0 mi ESE 17.3 mph 28.8 mph N/A   Overcast
10:56 AM 24.1 °F 10.6 °F 17.1 °F 75% 30.17 in 10.0 mi ESE 17.3 mph 25.3 mph N/A   Overcast
11:49 AM 24.8 °F 12.4 °F 19.4 °F 80% 30.07 in 7.0 mi SE 15.0 mph 25.3 mph N/A   Overcast
11:56 AM 25.0 °F 13.1 °F 19.0 °F 78% 30.16 in 9.0 mi SE 13.8 mph 24.2 mph N/A   Overcast
12:27 PM 24.8 °F 11.5 °F 19.4 °F 80% 30.07 in 1.8 mi SE 17.3 mph 25.3 mph N/A   Haze
12:37 PM 24.8 °F 11.5 °F 21.2 °F 86% 30.06 in 1.5 mi SE 17.3 mph 28.8 mph 0.00 in Rain Light Freezing Rain
12:43 PM 24.8 °F 12.9 °F 21.2 °F 86% 30.05 in 3.0 mi SE 13.8 mph 28.8 mph 0.00 in Rain Light Freezing Rain
12:56 PM 24.1 °F 9.0 °F 21.0 °F 88% 30.14 in 5.0 mi SE 21.9 mph 28.8 mph 0.00 in Rain Light Freezing Rain
1:11 PM 24.8 °F 11.5 °F 21.2 °F 86% 30.04 in 4.0 mi SE 17.3 mph 23.0 mph 0.00 in   Overcast
1:24 PM 24.8 °F 12.4 °F 21.2 °F 86% 30.04 in 2.0 mi SE 15.0 mph 26.5 mph 0.00 in   Overcast
1:32 PM 24.8 °F 11.9 °F 21.2 °F 86% 30.04 in 1.5 mi SE 16.1 mph 26.5 mph 0.00 in   Overcast
1:56 PM 25.0 °F 12.6 °F 23.0 °F 92% 30.12 in 1.2 mi SE 15.0 mph 24.2 mph 0.00 in   Overcast
2:56 PM 25.0 °F 13.1 °F 24.1 °F 96% 30.09 in 2.0 mi SE 13.8 mph 23.0 mph N/A   Overcast
3:29 PM 26.6 °F 14.3 °F 24.8 °F 93% 30.01 in 1.5 mi ESE 16.1 mph 20.7 mph N/A   Overcast
3:56 PM 26.1 °F 15.0 °F 24.1 °F 92% 30.09 in 2.5 mi ESE 12.7 mph - N/A   Overcast
4:03 PM 26.6 °F 15.7 °F 24.8 °F 93% 30.01 in 4.0 mi SE 12.7 mph 21.9 mph N/A   Overcast
4:28 PM 26.6 °F 16.8 °F 24.8 °F 93% 30.01 in 1.8 mi SE 10.4 mph - N/A   Overcast
4:53 PM 26.6 °F 16.2 °F 24.8 °F 93% 30.01 in 3.0 mi SE 11.5 mph 19.6 mph N/A   Overcast
4:56 PM 26.1 °F 15.6 °F 25.0 °F 96% 30.09 in 4.0 mi SE 11.5 mph 19.6 mph N/A   Overcast
5:56 PM 27.0 °F 15.6 °F 25.0 °F 92% 30.08 in 9.0 mi SE 13.8 mph 19.6 mph N/A   Overcast
6:56 PM 27.0 °F 14.7 °F 25.0 °F 92% 30.09 in 10.0 mi ESE 16.1 mph 20.7 mph N/A   Overcast
7:56 PM 27.0 °F 18.7 °F 25.0 °F 92% 30.09 in 8.0 mi ESE 8.1 mph - N/A   Overcast
8:56 PM 27.0 °F 16.1 °F 24.1 °F 89% 30.08 in 7.0 mi ESE 12.7 mph - N/A   Overcast
9:56 PM 27.0 °F 17.3 °F 24.1 °F 89% 30.08 in 7.0 mi ESE 10.4 mph - N/A   Overcast
10:56 PM 26.1 °F 18.4 °F 24.1 °F 92% 30.08 in 6.0 mi SE 6.9 mph - N/A   Overcast
11:56 PM 26.1 °F 16.8 °F 24.1 °F 92% 30.07 in 5.0 mi SE 9.2 mph - N/A   Overcast